Time,TemperatureF,DewpointF,PressureIn,WindDirection,WindDirectionDegrees,WindSpeedMPH,WindSpeedGustMPH,Humidity,HourlyPrecipIn,Conditions,Clouds,dailyrainin,SoftwareType,DateUTC
2013-11-18 00:02:00,13.3,10.9,30.39,NNW,346,1.0,3.0,90,0.00,,---,1.59,VWS V14.01,2013-11-18 07:02:00,
2013-11-18 00:07:00,13.1,10.7,30.38,NNW,346,2.0,3.0,90,0.00,,---,0.00,VWS V14.01,2013-11-18 07:07:00,
2013-11-18 00:12:00,12.5,9.9,30.39,NNW,346,0.0,0.0,89,0.00,,---,0.00,VWS V14.01,2013-11-18 07:12:00,
2013-11-18 00:17:00,12.3,9.7,30.39,NNW,346,2.0,3.0,89,0.00,,---,0.00,VWS V14.01,2013-11-18 07:17:00,
2013-11-18 00:22:00,12.7,10.3,30.38,NNW,346,0.0,0.0,90,0.00,,---,0.00,VWS V14.01,2013-11-18 07:22:00,
2013-11-18 00:27:00,12.5,10.1,30.38,NNW,346,7.0,9.0,90,0.00,,---,0.00,VWS V14.01,2013-11-18 07:27:00,
2013-11-18 00:32:00,12.0,9.4,30.38,NNW,346,2.0,6.0,89,0.00,,---,0.00,VWS V14.01,2013-11-18 07:32:00,
2013-11-18 00:37:00,11.3,8.4,30.39,NNW,346,4.0,4.0,88,0.00,,---,0.00,VWS V14.01,2013-11-18 07:37:00,
2013-11-18 00:42:00,11.5,9.1,30.38,NNW,346,5.0,5.0,90,0.00,,---,0.00,VWS V14.01,2013-11-18 07:42:00,
2013-11-18 00:47:00,11.9,9.5,30.38,NNW,346,10.0,10.0,90,0.00,,---,0.00,VWS V14.01,2013-11-18 07:47:00,
2013-11-18 00:52:00,12.5,10.1,30.38,NNW,346,3.0,3.0,90,0.00,,---,0.00,VWS V14.01,2013-11-18 07:52:00,
2013-11-18 00:57:00,11.2,8.1,30.39,NNW,346,0.0,0.0,87,0.00,,---,0.00,VWS V14.01,2013-11-18 07:57:00,
2013-11-18 01:02:00,10.8,7.7,30.39,NNW,346,0.0,0.0,87,0.00,,---,0.00,VWS V14.01,2013-11-18 08:02:00,
2013-11-18 01:07:00,10.4,7.6,30.39,NNW,346,0.0,0.0,88,0.00,,---,0.00,VWS V14.01,2013-11-18 08:07:00,
2013-11-18 01:12:00,10.5,7.9,30.39,NNW,346,0.0,0.0,89,0.00,,---,0.00,VWS V14.01,2013-11-18 08:12:00,
2013-11-18 01:17:00,10.8,8.4,30.39,NNW,346,0.0,0.0,90,0.00,,---,0.00,VWS V14.01,2013-11-18 08:17:00,
2013-11-18 01:22:00,11.0,8.6,30.39,NNW,346,5.0,5.0,90,0.00,,---,0.00,VWS V14.01,2013-11-18 08:22:00,
2013-11-18 01:27:00,11.4,9.0,30.39,NNW,346,8.0,8.0,90,0.00,,---,0.00,VWS V14.01,2013-11-18 08:27:00,
2013-11-18 01:32:00,11.4,9.0,30.40,NNW,346,6.0,6.0,90,0.00,,---,0.00,VWS V14.01,2013-11-18 08:32:00,
2013-11-18 01:37:00,11.2,8.6,30.40,NNW,346,0.0,0.0,89,0.00,,---,0.00,VWS V14.01,2013-11-18 08:37:00,
2013-11-18 01:42:00,10.3,7.2,30.41,NNW,346,0.0,0.0,87,0.00,,---,0.00,VWS V14.01,2013-11-18 08:42:00,
2013-11-18 01:47:00,9.5,6.2,30.41,NNW,346,4.0,4.0,86,0.00,,---,0.00,VWS V14.01,2013-11-18 08:47:00,
2013-11-18 01:52:00,7.4,3.6,30.41,NNW,346,2.0,3.0,84,0.00,,---,0.00,VWS V14.01,2013-11-18 08:52:00,
2013-11-18 01:57:00,8.2,5.6,30.41,NNW,346,5.0,5.0,89,0.00,,---,0.00,VWS V14.01,2013-11-18 08:57:00,
2013-11-18 02:02:00,9.8,7.7,30.42,NNW,346,3.0,4.0,91,0.00,,---,0.00,VWS V14.01,2013-11-18 09:02:00,
2013-11-18 02:07:00,8.6,5.8,30.42,NNW,345,3.0,3.0,88,0.00,,---,0.00,VWS V14.01,2013-11-18 09:07:00,
2013-11-18 02:12:00,7.4,4.6,30.42,NNW,345,0.0,0.0,88,0.00,,---,0.00,VWS V14.01,2013-11-18 09:12:00,
2013-11-18 02:18:00,8.2,5.9,30.42,NNW,345,5.0,6.0,90,0.00,,---,0.00,VWS V14.01,2013-11-18 09:18:00,
2013-11-18 02:23:00,10.5,8.6,30.42,NNW,345,1.0,2.0,92,0.00,,---,0.00,VWS V14.01,2013-11-18 09:23:00,
2013-11-18 02:28:00,11.6,9.5,30.42,NNW,345,3.0,5.0,91,0.00,,---,0.00,VWS V14.01,2013-11-18 09:28:00,
2013-11-18 02:33:00,10.2,7.4,30.43,NNW,345,0.0,1.0,88,0.00,,---,0.00,VWS V14.01,2013-11-18 09:33:00,
2013-11-18 02:38:00,8.6,5.5,30.43,NNW,345,0.0,0.0,87,0.00,,---,0.00,VWS V14.01,2013-11-18 09:38:00,
2013-11-18 02:43:00,8.3,5.5,30.43,NNW,345,1.0,2.0,88,0.00,,---,0.00,VWS V14.01,2013-11-18 09:43:00,
2013-11-18 02:48:00,8.6,6.0,30.43,NNW,345,1.0,3.0,89,0.00,,---,0.00,VWS V14.01,2013-11-18 09:48:00,
2013-11-18 02:53:00,9.2,6.6,30.43,NNW,345,3.0,5.0,89,0.00,,---,0.00,VWS V14.01,2013-11-18 09:53:00,
2013-11-18 02:58:00,9.3,6.7,30.42,NNW,345,0.0,0.0,89,0.00,,---,0.00,VWS V14.01,2013-11-18 09:58:00,
2013-11-18 03:03:00,9.4,6.8,30.43,NNW,345,0.0,0.0,89,0.00,,---,0.00,VWS V14.01,2013-11-18 10:03:00,
2013-11-18 03:08:00,9.3,6.7,30.43,NNW,345,0.0,0.0,89,0.00,,---,0.00,VWS V14.01,2013-11-18 10:08:00,
2013-11-18 03:13:00,9.1,6.3,30.44,NNW,345,0.0,0.0,88,0.00,,---,0.00,VWS V14.01,2013-11-18 10:13:00,
2013-11-18 03:18:00,8.8,6.0,30.44,NNW,345,0.0,0.0,88,0.00,,---,0.00,VWS V14.01,2013-11-18 10:18:00,
2013-11-18 03:23:00,8.6,5.8,30.44,NNW,345,0.0,0.0,88,0.00,,---,0.00,VWS V14.01,2013-11-18 10:23:00,
2013-11-18 03:28:00,8.5,5.7,30.45,NNW,345,0.0,0.0,88,0.00,,---,0.00,VWS V14.01,2013-11-18 10:28:00,
2013-11-18 03:33:00,8.4,5.6,30.45,NNW,345,2.0,3.0,88,0.00,,---,0.00,VWS V14.01,2013-11-18 10:33:00,
2013-11-18 03:38:00,8.5,5.9,30.45,NNW,345,5.0,5.0,89,0.00,,---,0.00,VWS V14.01,2013-11-18 10:38:00,
2013-11-18 03:43:00,9.3,7.0,30.45,NNW,345,5.0,5.0,90,0.00,,---,0.00,VWS V14.01,2013-11-18 10:43:00,
2013-11-18 03:48:00,9.2,6.6,30.45,NNW,345,1.0,2.0,89,0.00,,---,0.00,VWS V14.01,2013-11-18 10:48:00,
2013-11-18 03:53:00,8.5,5.7,30.45,NNW,345,0.0,0.0,88,0.00,,---,0.00,VWS V14.01,2013-11-18 10:53:00,
2013-11-18 03:58:00,8.3,5.5,30.46,NNW,345,0.0,0.0,88,0.00,,---,0.00,VWS V14.01,2013-11-18 10:58:00,
2013-11-18 04:03:00,8.2,5.4,30.46,NNW,345,0.0,0.0,88,0.00,,---,0.00,VWS V14.01,2013-11-18 11:03:00,
2013-11-18 04:08:00,8.1,5.3,30.46,NNW,345,0.0,0.0,88,0.00,,---,0.00,VWS V14.01,2013-11-18 11:08:00,
2013-11-18 04:13:00,8.2,5.4,30.47,NNW,345,0.0,0.0,88,0.00,,---,0.00,VWS V14.01,2013-11-18 11:13:00,
2013-11-18 04:18:00,8.3,5.7,30.47,NNW,345,0.0,1.0,89,0.00,,---,0.00,VWS V14.01,2013-11-18 11:18:00,
2013-11-18 04:23:00,8.5,5.9,30.48,NNW,345,0.0,0.0,89,0.00,,---,0.00,VWS V14.01,2013-11-18 11:23:00,
2013-11-18 04:28:00,8.6,6.0,30.48,NNW,345,2.0,2.0,89,0.00,,---,0.00,VWS V14.01,2013-11-18 11:28:00,
2013-11-18 04:33:00,8.3,5.5,30.49,NNW,345,2.0,2.0,88,0.00,,---,0.00,VWS V14.01,2013-11-18 11:33:00,
2013-11-18 04:38:00,7.6,4.6,30.49,NNW,345,4.0,4.0,87,0.00,,---,0.00,VWS V14.01,2013-11-18 11:38:00,
2013-11-18 04:43:00,6.8,3.8,30.49,NNW,345,0.0,0.0,87,0.00,,---,0.00,VWS V14.01,2013-11-18 11:43:00,
2013-11-18 04:48:00,6.7,3.9,30.50,NNW,345,1.0,2.0,88,0.00,,---,0.00,VWS V14.01,2013-11-18 11:48:00,
2013-11-18 04:53:00,6.9,4.1,30.50,NNW,345,2.0,2.0,88,0.00,,---,0.00,VWS V14.01,2013-11-18 11:53:00,
2013-11-18 04:58:00,7.1,4.3,30.50,NNW,345,2.0,2.0,88,0.00,,---,0.00,VWS V14.01,2013-11-18 11:58:00,
2013-11-18 05:03:00,7.4,4.8,30.51,NNW,345,0.0,0.0,89,0.00,,---,0.00,VWS V14.01,2013-11-18 12:03:00,
2013-11-18 05:08:00,7.4,4.8,30.51,NNW,345,0.0,0.0,89,0.00,,---,0.00,VWS V14.01,2013-11-18 12:08:00,
2013-11-18 05:13:00,7.4,4.6,30.52,NNW,345,0.0,0.0,88,0.00,,---,0.00,VWS V14.01,2013-11-18 12:13:00,
2013-11-18 05:18:00,7.4,4.6,30.52,NNW,345,0.0,0.0,88,0.00,,---,0.00,VWS V14.01,2013-11-18 12:18:00,
2013-11-18 05:23:00,7.4,4.6,30.52,NNW,345,0.0,0.0,88,0.00,,---,0.00,VWS V14.01,2013-11-18 12:23:00,
2013-11-18 05:28:00,7.3,4.5,30.52,NNW,345,0.0,0.0,88,0.00,,---,0.00,VWS V14.01,2013-11-18 12:28:00,
2013-11-18 05:33:00,7.4,4.6,30.52,NNW,345,0.0,0.0,88,0.00,,---,0.00,VWS V14.01,2013-11-18 12:33:00,
2013-11-18 05:38:00,7.4,4.8,30.52,NNW,345,0.0,0.0,89,0.00,,---,0.00,VWS V14.01,2013-11-18 12:38:00,
2013-11-18 05:43:00,7.5,4.7,30.53,NNW,345,0.0,0.0,88,0.00,,---,0.00,VWS V14.01,2013-11-18 12:43:00,
2013-11-18 05:49:00,7.6,5.0,30.53,NNW,345,1.0,1.0,89,0.00,,---,0.00,VWS V14.01,2013-11-18 12:49:00,
2013-11-18 05:54:00,8.1,5.5,30.53,NNW,345,2.0,2.0,89,0.00,,---,0.00,VWS V14.01,2013-11-18 12:54:00,
2013-11-18 05:59:00,7.7,4.9,30.53,NNW,345,2.0,2.0,88,0.00,,---,0.00,VWS V14.01,2013-11-18 12:59:00,
2013-11-18 06:04:00,6.8,3.8,30.53,NNW,345,0.0,0.0,87,0.00,,---,0.00,VWS V14.01,2013-11-18 13:04:00,
2013-11-18 06:09:00,6.3,3.3,30.54,NNW,345,0.0,0.0,87,0.00,,---,0.00,VWS V14.01,2013-11-18 13:09:00,
2013-11-18 06:14:00,6.4,3.6,30.55,NNW,345,2.0,2.0,88,0.00,,---,0.00,VWS V14.01,2013-11-18 13:14:00,
2013-11-18 06:19:00,6.6,3.8,30.55,NNW,345,0.0,0.0,88,0.00,,---,0.00,VWS V14.01,2013-11-18 13:19:00,
2013-11-18 06:24:00,6.7,3.9,30.55,NNW,345,0.0,0.0,88,0.00,,---,0.00,VWS V14.01,2013-11-18 13:24:00,
2013-11-18 06:29:00,6.6,3.8,30.56,NNW,345,0.0,0.0,88,0.00,,---,0.00,VWS V14.01,2013-11-18 13:29:00,
2013-11-18 06:34:00,6.6,3.8,30.56,NNW,345,0.0,0.0,88,0.00,,---,0.00,VWS V14.01,2013-11-18 13:34:00,
2013-11-18 06:39:00,6.6,3.8,30.57,NNW,345,0.0,0.0,88,0.00,,---,0.00,VWS V14.01,2013-11-18 13:39:00,
2013-11-18 06:44:00,6.5,3.7,30.57,NNW,345,0.0,0.0,88,0.00,,---,0.00,VWS V14.01,2013-11-18 13:44:00,
2013-11-18 06:49:00,6.5,3.7,30.57,NNW,345,0.0,0.0,88,0.00,,---,0.00,VWS V14.01,2013-11-18 13:49:00,
2013-11-18 06:54:00,6.5,3.7,30.58,NNW,345,0.0,0.0,88,0.00,,---,0.00,VWS V14.01,2013-11-18 13:54:00,
2013-11-18 06:59:00,6.5,3.7,30.58,NNW,345,0.0,0.0,88,0.00,,---,0.00,VWS V14.01,2013-11-18 13:59:00,
2013-11-18 07:04:00,6.3,3.5,30.58,NNW,345,0.0,0.0,88,0.00,,---,0.00,VWS V14.01,2013-11-18 14:04:00,
2013-11-18 07:09:00,5.8,2.8,30.59,NNW,345,0.0,0.0,87,0.00,,---,0.00,VWS V14.01,2013-11-18 14:09:00,
2013-11-18 07:14:00,5.6,2.6,30.59,NNW,345,0.0,0.0,87,0.00,,---,0.00,VWS V14.01,2013-11-18 14:14:00,
2013-11-18 07:19:00,6.3,3.5,30.59,NNW,345,0.0,0.0,88,0.00,,---,0.00,VWS V14.01,2013-11-18 14:19:00,
2013-11-18 07:24:00,6.6,4.1,30.59,NNW,345,0.0,0.0,89,0.00,,---,0.00,VWS V14.01,2013-11-18 14:24:00,
2013-11-18 07:29:00,6.8,4.0,30.59,NNW,345,0.0,0.0,88,0.00,,---,0.00,VWS V14.01,2013-11-18 14:29:00,
2013-11-18 07:34:00,7.9,5.6,30.60,NNW,345,0.0,0.0,90,0.00,,---,0.00,VWS V14.01,2013-11-18 14:34:00,
2013-11-18 07:39:00,8.3,5.7,30.60,NNW,345,0.0,0.0,89,0.00,,---,0.00,VWS V14.01,2013-11-18 14:39:00,
2013-11-18 07:44:00,7.1,4.1,30.60,NNW,345,0.0,0.0,87,0.00,,---,0.00,VWS V14.01,2013-11-18 14:44:00,
2013-11-18 07:49:00,6.2,3.2,30.61,NNW,345,0.0,0.0,87,0.00,,---,0.00,VWS V14.01,2013-11-18 14:49:00,
2013-11-18 07:54:00,6.5,3.7,30.60,NNW,345,0.0,0.0,88,0.00,,---,0.00,VWS V14.01,2013-11-18 14:54:00,
2013-11-18 07:59:00,7.6,5.0,30.61,NNW,345,0.0,0.0,89,0.00,,---,0.00,VWS V14.01,2013-11-18 14:59:00,
2013-11-18 08:04:00,8.7,6.1,30.61,NNW,345,0.0,0.0,89,0.00,,---,0.00,VWS V14.01,2013-11-18 15:04:00,
2013-11-18 08:09:00,8.3,5.7,30.61,NNW,345,0.0,0.0,89,0.00,,---,0.00,VWS V14.01,2013-11-18 15:09:00,
2013-11-18 08:14:00,9.5,7.2,30.61,NNW,345,0.0,0.0,90,0.00,,---,0.00,VWS V14.01,2013-11-18 15:14:00,
2013-11-18 08:19:00,10.2,7.9,30.61,NNW,345,0.0,0.0,90,0.00,,---,0.00,VWS V14.01,2013-11-18 15:19:00,
2013-11-18 08:24:00,10.1,7.3,30.62,NNW,345,0.0,0.0,88,0.00,,---,0.00,VWS V14.01,2013-11-18 15:24:00,
2013-11-18 08:29:00,8.3,5.2,30.62,NNW,345,0.0,0.0,87,0.00,,---,0.00,VWS V14.01,2013-11-18 15:29:00,
2013-11-18 08:34:00,10.0,7.7,30.62,NNW,345,0.0,0.0,90,0.00,,---,0.00,VWS V14.01,2013-11-18 15:34:00,
2013-11-18 08:39:00,11.7,9.6,30.62,NNW,345,0.0,0.0,91,0.00,,---,0.00,VWS V14.01,2013-11-18 15:39:00,
2013-11-18 08:44:00,10.2,7.4,30.62,NNW,345,0.0,2.0,88,0.00,,---,0.00,VWS V14.01,2013-11-18 15:44:00,
2013-11-18 08:49:00,10.1,7.5,30.62,NNW,345,0.0,1.0,89,0.00,,---,0.00,VWS V14.01,2013-11-18 15:49:00,
2013-11-18 08:51:00,10.2,7.6,30.62,NNW,345,0.0,0.0,89,0.00,,---,0.00,VWS V14.01,2013-11-18 15:51:00,
2013-11-18 08:56:00,9.9,7.1,30.62,NNW,345,0.0,0.0,88,0.00,,---,0.00,VWS V14.01,2013-11-18 15:56:00,
2013-11-18 09:01:00,10.5,7.9,30.62,NNW,345,0.0,0.0,89,0.00,,---,0.00,VWS V14.01,2013-11-18 16:01:00,
2013-11-18 09:06:00,12.1,9.7,30.63,NNW,345,0.0,0.0,90,0.00,,---,0.00,VWS V14.01,2013-11-18 16:06:00,
2013-11-18 09:11:00,14.4,12.5,30.62,NNW,345,0.0,0.0,92,0.00,,---,0.00,VWS V14.01,2013-11-18 16:11:00,
2013-11-18 09:16:00,15.2,13.1,30.63,NNW,345,0.0,0.0,91,0.00,,---,0.00,VWS V14.01,2013-11-18 16:16:00,
2013-11-18 09:21:00,14.4,11.8,30.63,NNW,345,0.0,0.0,89,0.00,,---,0.00,VWS V14.01,2013-11-18 16:21:00,
2013-11-18 09:26:00,14.3,11.7,30.63,NNW,345,0.0,0.0,89,0.00,,---,0.00,VWS V14.01,2013-11-18 16:26:00,
2013-11-18 09:31:00,14.7,12.3,30.63,NNW,345,0.0,0.0,90,0.00,,---,0.00,VWS V14.01,2013-11-18 16:31:00,
2013-11-18 09:36:00,15.3,12.6,30.63,NNW,345,0.0,0.0,89,0.00,,---,0.00,VWS V14.01,2013-11-18 16:36:00,
2013-11-18 09:41:00,16.1,13.2,30.63,NNW,345,0.0,0.0,88,0.00,,---,0.00,VWS V14.01,2013-11-18 16:41:00,
2013-11-18 09:46:00,16.5,13.3,30.62,NNW,345,0.0,0.0,87,0.00,,---,0.00,VWS V14.01,2013-11-18 16:46:00,
2013-11-18 09:51:00,17.5,14.0,30.62,NNW,345,0.0,0.0,86,0.00,,---,0.00,VWS V14.01,2013-11-18 16:51:00,
2013-11-18 09:56:00,17.6,14.1,30.62,NNW,345,0.0,2.0,86,0.00,,---,0.00,VWS V14.01,2013-11-18 16:56:00,
2013-11-18 10:01:00,18.1,14.9,30.61,NNW,345,1.0,1.0,87,0.00,,---,0.00,VWS V14.01,2013-11-18 17:01:00,
2013-11-18 10:06:00,19.0,15.5,30.61,NNW,345,3.0,3.0,86,0.00,,---,0.00,VWS V14.01,2013-11-18 17:06:00,
2013-11-18 10:11:00,19.8,16.0,30.61,NNW,345,1.0,2.0,85,0.00,,---,0.00,VWS V14.01,2013-11-18 17:11:00,
2013-11-18 10:16:00,20.4,16.4,30.61,NNW,345,0.0,0.0,84,0.00,,---,0.00,VWS V14.01,2013-11-18 17:16:00,
2013-11-18 10:21:00,20.9,16.3,30.61,NNW,345,0.0,0.0,82,0.00,,---,0.00,VWS V14.01,2013-11-18 17:21:00,
2013-11-18 10:26:00,21.9,16.7,30.61,NNW,345,0.0,0.0,80,0.00,,---,0.00,VWS V14.01,2013-11-18 17:26:00,
2013-11-18 10:31:00,22.8,17.3,30.61,NNW,345,0.0,0.0,79,0.00,,---,0.00,VWS V14.01,2013-11-18 17:31:00,
2013-11-18 10:36:00,22.2,15.8,30.61,NNW,345,0.0,1.0,76,0.00,,---,0.00,VWS V14.01,2013-11-18 17:36:00,
2013-11-18 10:41:00,22.4,16.6,30.61,NNW,345,2.0,2.0,78,0.00,,---,0.00,VWS V14.01,2013-11-18 17:41:00,
2013-11-18 10:46:00,22.1,15.7,30.61,NNW,345,3.0,3.0,76,0.00,,---,0.00,VWS V14.01,2013-11-18 17:46:00,
2013-11-18 10:51:00,22.3,16.2,30.61,NNW,345,2.0,2.0,77,0.00,,---,0.00,VWS V14.01,2013-11-18 17:51:00,
2013-11-18 10:56:00,22.2,15.5,30.61,NNW,345,2.0,2.0,75,0.00,,---,0.00,VWS V14.01,2013-11-18 17:56:00,
2013-11-18 11:01:00,22.9,15.9,30.61,NNW,345,2.0,2.0,74,0.00,,---,0.00,VWS V14.01,2013-11-18 18:01:00,
2013-11-18 11:06:00,23.6,16.2,30.61,NNW,345,0.0,0.0,73,0.00,,---,0.00,VWS V14.01,2013-11-18 18:06:00,
2013-11-18 11:11:00,23.8,16.1,30.61,NNW,345,0.0,0.0,72,0.00,,---,0.00,VWS V14.01,2013-11-18 18:11:00,
2013-11-18 11:16:00,24.4,16.7,30.60,NNW,345,0.0,0.0,72,0.00,,---,0.00,VWS V14.01,2013-11-18 18:16:00,
2013-11-18 11:21:00,24.8,17.1,30.60,NNW,345,0.0,1.0,72,0.00,,---,0.00,VWS V14.01,2013-11-18 18:21:00,
2013-11-18 11:26:00,25.6,17.8,30.60,NNW,345,1.0,2.0,72,0.00,,---,0.00,VWS V14.01,2013-11-18 18:26:00,
2013-11-18 11:31:00,25.7,18.3,30.59,NNW,345,2.0,2.0,73,0.00,,---,0.00,VWS V14.01,2013-11-18 18:31:00,
2013-11-18 11:36:00,25.5,17.8,30.59,NNW,345,0.0,0.0,72,0.00,,---,0.00,VWS V14.01,2013-11-18 18:36:00,
2013-11-18 11:41:00,25.4,17.6,30.59,NNW,345,0.0,0.0,72,0.00,,---,0.00,VWS V14.01,2013-11-18 18:41:00,
2013-11-18 11:46:00,26.2,18.4,30.59,NNW,345,0.0,0.0,72,0.00,,---,0.00,VWS V14.01,2013-11-18 18:46:00,
2013-11-18 11:51:00,26.3,17.9,30.58,NNW,345,0.0,0.0,70,0.00,,---,0.00,VWS V14.01,2013-11-18 18:51:00,
2013-11-18 11:57:00,25.6,18.2,30.58,NNW,345,0.0,0.0,73,0.00,,---,0.00,VWS V14.01,2013-11-18 18:57:00,
2013-11-18 12:02:00,25.9,18.5,30.58,NNW,345,0.0,0.0,73,0.00,,---,0.00,VWS V14.01,2013-11-18 19:02:00,
2013-11-18 12:07:00,26.2,17.8,30.57,NNW,345,0.0,0.0,70,0.00,,---,0.00,VWS V14.01,2013-11-18 19:07:00,
2013-11-18 12:12:00,27.0,18.5,30.57,NNW,345,0.0,0.0,70,0.00,,---,0.00,VWS V14.01,2013-11-18 19:12:00,
2013-11-18 12:17:00,27.0,18.9,30.57,NNW,345,0.0,0.0,71,0.00,,---,0.00,VWS V14.01,2013-11-18 19:17:00,
2013-11-18 12:22:00,27.8,19.0,30.57,NNW,345,1.0,2.0,69,0.00,,---,0.00,VWS V14.01,2013-11-18 19:22:00,
2013-11-18 12:27:00,27.9,18.7,30.57,NNW,345,2.0,2.0,68,0.00,,---,0.00,VWS V14.01,2013-11-18 19:27:00,
2013-11-18 12:32:00,28.3,19.5,30.57,NNW,345,1.0,3.0,69,0.00,,---,0.00,VWS V14.01,2013-11-18 19:32:00,
2013-11-18 12:37:00,28.3,18.4,30.57,NNW,345,3.0,4.0,66,0.00,,---,0.00,VWS V14.01,2013-11-18 19:37:00,
2013-11-18 12:42:00,28.1,18.9,30.57,NE,36,8.0,8.0,68,0.00,,---,0.00,VWS V14.01,2013-11-18 19:42:00,
2013-11-18 12:47:00,27.1,19.0,30.57,ENE,76,8.0,9.0,71,0.00,,---,0.00,VWS V14.01,2013-11-18 19:47:00,
2013-11-18 12:52:00,26.8,18.7,30.57,East,90,7.0,9.0,71,0.00,,---,0.00,VWS V14.01,2013-11-18 19:52:00,
2013-11-18 12:57:00,27.0,18.9,30.56,East,96,5.0,8.0,71,0.01,,---,0.01,VWS V14.01,2013-11-18 19:57:00,
2013-11-18 13:02:00,26.8,18.7,30.56,East,101,8.0,8.0,71,0.01,,---,0.01,VWS V14.01,2013-11-18 20:02:00,
2013-11-18 13:07:00,26.7,18.9,30.56,East,101,7.0,7.0,72,0.01,,---,0.01,VWS V14.01,2013-11-18 20:07:00,
2013-11-18 13:12:00,27.1,19.3,30.56,East,101,7.0,7.0,72,0.01,,---,0.01,VWS V14.01,2013-11-18 20:12:00,
2013-11-18 13:17:00,27.0,18.9,30.56,East,101,6.0,6.0,71,0.01,,---,0.01,VWS V14.01,2013-11-18 20:17:00,
2013-11-18 13:22:00,27.0,19.2,30.56,East,101,3.0,6.0,72,0.01,,---,0.01,VWS V14.01,2013-11-18 20:22:00,
2013-11-18 13:27:00,26.9,18.8,30.56,East,101,5.0,5.0,71,0.01,,---,0.01,VWS V14.01,2013-11-18 20:27:00,
2013-11-18 13:32:00,27.0,18.9,30.55,East,101,2.0,2.0,71,0.01,,---,0.01,VWS V14.01,2013-11-18 20:32:00,
2013-11-18 13:37:00,27.0,18.9,30.55,East,101,0.0,0.0,71,0.01,,---,0.01,VWS V14.01,2013-11-18 20:37:00,
2013-11-18 13:42:00,27.3,19.1,30.55,East,101,0.0,0.0,71,0.01,,---,0.01,VWS V14.01,2013-11-18 20:42:00,
2013-11-18 13:47:00,27.6,19.1,30.55,East,101,0.0,0.0,70,0.01,,---,0.01,VWS V14.01,2013-11-18 20:47:00,
2013-11-18 13:52:00,27.8,19.3,30.54,East,101,0.0,0.0,70,0.01,,---,0.01,VWS V14.01,2013-11-18 20:52:00,
2013-11-18 13:57:00,27.7,19.5,30.54,East,101,0.0,0.0,71,0.00,,---,0.01,VWS V14.01,2013-11-18 20:57:00,
2013-11-18 14:02:00,27.9,19.4,30.54,East,101,0.0,1.0,70,0.00,,---,0.01,VWS V14.01,2013-11-18 21:02:00,
2013-11-18 14:07:00,28.1,19.6,30.54,East,101,0.0,0.0,70,0.00,,---,0.01,VWS V14.01,2013-11-18 21:07:00,
2013-11-18 14:12:00,28.0,19.5,30.54,East,101,1.0,2.0,70,0.00,,---,0.01,VWS V14.01,2013-11-18 21:12:00,
2013-11-18 14:17:00,28.3,20.1,30.54,East,101,0.0,0.0,71,0.00,,---,0.01,VWS V14.01,2013-11-18 21:17:00,
2013-11-18 14:22:00,28.7,19.8,30.54,East,101,0.0,0.0,69,0.00,,---,0.01,VWS V14.01,2013-11-18 21:22:00,
2013-11-18 14:27:00,28.9,19.7,30.54,East,101,0.0,1.0,68,0.00,,---,0.01,VWS V14.01,2013-11-18 21:27:00,
2013-11-18 14:32:00,29.0,19.8,30.54,East,101,0.0,0.0,68,0.00,,---,0.01,VWS V14.01,2013-11-18 21:32:00,
2013-11-18 14:37:00,28.6,20.1,30.54,East,101,0.0,0.0,70,0.00,,---,0.01,VWS V14.01,2013-11-18 21:37:00,
2013-11-18 14:42:00,29.3,20.1,30.54,East,101,0.0,0.0,68,0.00,,---,0.01,VWS V14.01,2013-11-18 21:42:00,
2013-11-18 14:47:00,29.1,19.9,30.53,East,101,0.0,0.0,68,0.00,,---,0.01,VWS V14.01,2013-11-18 21:47:00,
2013-11-18 14:52:00,28.9,19.7,30.54,East,101,0.0,0.0,68,0.00,,---,0.01,VWS V14.01,2013-11-18 21:52:00,
2013-11-18 14:57:00,29.6,21.0,30.54,East,101,0.0,0.0,70,0.00,,---,0.01,VWS V14.01,2013-11-18 21:57:00,
2013-11-18 15:02:00,28.7,19.5,30.53,East,101,0.0,0.0,68,0.00,,---,0.01,VWS V14.01,2013-11-18 22:02:00,
2013-11-18 15:07:00,28.6,19.4,30.53,East,101,0.0,0.0,68,0.00,,---,0.01,VWS V14.01,2013-11-18 22:07:00,
2013-11-18 15:12:00,28.7,19.5,30.53,East,101,0.0,0.0,68,0.00,,---,0.01,VWS V14.01,2013-11-18 22:12:00,
2013-11-18 15:17:00,28.8,19.6,30.53,East,101,0.0,0.0,68,0.00,,---,0.01,VWS V14.01,2013-11-18 22:17:00,
2013-11-18 15:22:00,29.7,20.1,30.53,East,101,0.0,0.0,67,0.00,,---,0.01,VWS V14.01,2013-11-18 22:22:00,
2013-11-18 15:27:00,29.2,19.6,30.53,East,101,0.0,0.0,67,0.00,,---,0.01,VWS V14.01,2013-11-18 22:27:00,
2013-11-18 15:32:00,29.1,19.5,30.54,East,101,0.0,0.0,67,0.00,,---,0.01,VWS V14.01,2013-11-18 22:32:00,
2013-11-18 15:37:00,28.4,19.2,30.53,East,101,0.0,0.0,68,0.00,,---,0.01,VWS V14.01,2013-11-18 22:37:00,
2013-11-18 15:42:00,28.3,19.5,30.54,East,101,0.0,0.0,69,0.00,,---,0.01,VWS V14.01,2013-11-18 22:42:00,
2013-11-18 15:47:00,28.8,19.9,30.54,East,101,0.0,0.0,69,0.00,,---,0.01,VWS V14.01,2013-11-18 22:47:00,
2013-11-18 15:52:00,28.5,19.6,30.54,East,101,1.0,1.0,69,0.00,,---,0.01,VWS V14.01,2013-11-18 22:52:00,
2013-11-18 15:57:00,28.1,19.6,30.53,East,101,0.0,0.0,70,0.00,,---,0.01,VWS V14.01,2013-11-18 22:57:00,
2013-11-18 16:02:00,26.6,18.5,30.54,East,101,0.0,0.0,71,0.00,,---,0.01,VWS V14.01,2013-11-18 23:02:00,
2013-11-18 16:07:00,26.3,18.5,30.54,East,101,0.0,0.0,72,0.00,,---,0.01,VWS V14.01,2013-11-18 23:07:00,
2013-11-18 16:12:00,25.8,18.7,30.54,East,101,0.0,0.0,74,0.00,,---,0.01,VWS V14.01,2013-11-18 23:12:00,
2013-11-18 16:17:00,26.2,19.1,30.54,East,101,0.0,0.0,74,0.00,,---,0.01,VWS V14.01,2013-11-18 23:17:00,
2013-11-18 16:22:00,26.5,19.4,30.54,East,101,0.0,0.0,74,0.00,,---,0.01,VWS V14.01,2013-11-18 23:22:00,
2013-11-18 16:27:00,26.5,19.0,30.54,East,101,1.0,2.0,73,0.00,,---,0.01,VWS V14.01,2013-11-18 23:27:00,
2013-11-18 16:32:00,26.3,18.5,30.54,East,101,2.0,2.0,72,0.00,,---,0.01,VWS V14.01,2013-11-18 23:32:00,
2013-11-18 16:37:00,25.9,18.5,30.54,East,101,6.0,6.0,73,0.00,,---,0.01,VWS V14.01,2013-11-18 23:37:00,
2013-11-18 16:42:00,25.4,18.0,30.54,East,100,5.0,6.0,73,0.00,,---,0.01,VWS V14.01,2013-11-18 23:42:00,
2013-11-18 16:47:00,24.6,16.9,30.54,East,100,1.0,3.0,72,0.00,,---,0.01,VWS V14.01,2013-11-18 23:47:00,
2013-11-18 16:53:00,24.2,16.8,30.54,East,100,3.0,3.0,73,0.00,,---,0.01,VWS V14.01,2013-11-18 23:53:00,
2013-11-18 16:58:00,23.4,16.0,30.54,East,100,0.0,0.0,73,0.00,,---,0.01,VWS V14.01,2013-11-18 23:58:00,
2013-11-18 17:03:00,23.0,16.6,30.54,East,100,0.0,0.0,76,0.00,,---,0.01,VWS V14.01,2013-11-19 00:03:00,
2013-11-18 17:08:00,22.7,16.6,30.54,East,100,1.0,2.0,77,0.00,,---,0.01,VWS V14.01,2013-11-19 00:08:00,
2013-11-18 17:13:00,22.6,16.5,30.54,East,100,5.0,5.0,77,0.00,,---,0.01,VWS V14.01,2013-11-19 00:13:00,
2013-11-18 17:18:00,22.5,16.1,30.55,East,100,5.0,5.0,76,0.00,,---,0.01,VWS V14.01,2013-11-19 00:18:00,
2013-11-18 17:23:00,22.2,15.5,30.55,East,96,7.0,8.0,75,0.00,,---,0.01,VWS V14.01,2013-11-19 00:23:00,
2013-11-18 17:28:00,21.7,15.6,30.55,East,93,5.0,5.0,77,0.00,,---,0.01,VWS V14.01,2013-11-19 00:28:00,
2013-11-18 17:33:00,21.6,15.2,30.55,East,93,0.0,0.0,76,0.00,,---,0.01,VWS V14.01,2013-11-19 00:33:00,
2013-11-18 17:38:00,21.3,15.5,30.55,East,93,0.0,0.0,78,0.00,,---,0.01,VWS V14.01,2013-11-19 00:38:00,
2013-11-18 17:43:00,20.6,14.6,30.55,ENE,78,7.0,8.0,77,0.00,,---,0.01,VWS V14.01,2013-11-19 00:43:00,
2013-11-18 17:48:00,19.5,13.8,30.55,NNW,342,12.0,12.0,78,0.00,,---,0.01,VWS V14.01,2013-11-19 00:48:00,
2013-11-18 17:53:00,18.9,13.8,30.55,NNW,342,9.0,11.0,80,0.00,,---,0.01,VWS V14.01,2013-11-19 00:53:00,
2013-11-18 17:58:00,18.3,13.2,30.55,NNW,329,0.0,0.0,80,0.00,,---,0.01,VWS V14.01,2013-11-19 00:58:00,
2013-11-18 18:03:00,18.2,13.6,30.56,NNW,329,0.0,0.0,82,0.00,,---,0.01,VWS V14.01,2013-11-19 01:03:00,
2013-11-18 18:08:00,18.3,14.3,30.56,NNW,329,3.0,3.0,84,0.00,,---,0.01,VWS V14.01,2013-11-19 01:08:00,
2013-11-18 18:13:00,18.4,14.1,30.56,NNW,329,2.0,4.0,83,0.00,,---,0.01,VWS V14.01,2013-11-19 01:13:00,
2013-11-18 18:18:00,18.5,14.2,30.56,NNW,329,0.0,0.0,83,0.00,,---,0.01,VWS V14.01,2013-11-19 01:18:00,
2013-11-18 18:23:00,18.6,14.3,30.56,NNW,330,7.0,7.0,83,0.00,,---,0.01,VWS V14.01,2013-11-19 01:23:00,
2013-11-18 18:28:00,18.3,13.7,30.56,NNW,338,6.0,8.0,82,0.00,,---,0.01,VWS V14.01,2013-11-19 01:28:00,
2013-11-18 18:33:00,18.6,14.6,30.56,NNW,332,3.0,6.0,84,0.00,,---,0.01,VWS V14.01,2013-11-19 01:33:00,
2013-11-18 18:38:00,18.8,14.5,30.56,NNW,332,0.0,0.0,83,0.00,,---,0.01,VWS V14.01,2013-11-19 01:38:00,
2013-11-18 18:43:00,18.8,14.8,30.56,NNW,332,0.0,0.0,84,0.00,,---,0.01,VWS V14.01,2013-11-19 01:43:00,
2013-11-18 18:48:00,18.8,14.8,30.56,NNW,332,0.0,2.0,84,0.00,,---,0.01,VWS V14.01,2013-11-19 01:48:00,
2013-11-18 18:53:00,18.8,14.8,30.56,NNW,332,0.0,0.0,84,0.00,,---,0.01,VWS V14.01,2013-11-19 01:53:00,
2013-11-18 18:58:00,18.4,14.1,30.56,NNW,332,0.0,0.0,83,0.00,,---,0.01,VWS V14.01,2013-11-19 01:58:00,
2013-11-18 19:03:00,18.3,14.3,30.56,NNW,332,5.0,6.0,84,0.00,,---,0.01,VWS V14.01,2013-11-19 02:03:00,
2013-11-18 19:08:00,18.6,14.9,30.56,NNW,338,7.0,7.0,85,0.00,,---,0.01,VWS V14.01,2013-11-19 02:08:00,
2013-11-18 19:13:00,19.4,15.9,30.56,NNW,334,9.0,10.0,86,0.00,,---,0.01,VWS V14.01,2013-11-19 02:13:00,
2013-11-18 19:18:00,19.9,16.1,30.56,NW,324,3.0,4.0,85,0.00,,---,0.01,VWS V14.01,2013-11-19 02:18:00,
2013-11-18 19:23:00,19.4,14.8,30.56,NW,324,0.0,0.0,82,0.00,,---,0.01,VWS V14.01,2013-11-19 02:23:00,
2013-11-18 19:28:00,19.0,14.1,30.56,NW,324,2.0,3.0,81,0.00,,---,0.01,VWS V14.01,2013-11-19 02:28:00,
2013-11-18 19:33:00,18.2,13.1,30.56,NW,324,1.0,2.0,80,0.00,,---,0.01,VWS V14.01,2013-11-19 02:33:00,
2013-11-18 19:38:00,17.4,13.1,30.57,NW,324,2.0,3.0,83,0.00,,---,0.01,VWS V14.01,2013-11-19 02:38:00,
2013-11-18 19:43:00,17.3,13.6,30.57,NW,324,2.0,4.0,85,0.00,,---,0.01,VWS V14.01,2013-11-19 02:43:00,
2013-11-18 19:48:00,17.3,13.6,30.57,NW,324,2.0,4.0,85,0.00,,---,0.01,VWS V14.01,2013-11-19 02:48:00,
2013-11-18 19:53:00,17.3,13.8,30.58,NW,324,0.0,0.0,86,0.00,,---,0.01,VWS V14.01,2013-11-19 02:53:00,
2013-11-18 19:58:00,17.3,13.8,30.57,NW,324,0.0,2.0,86,0.00,,---,0.01,VWS V14.01,2013-11-19 02:58:00,
2013-11-18 20:03:00,17.5,14.3,30.58,NW,324,0.0,3.0,87,0.00,,---,0.01,VWS V14.01,2013-11-19 03:03:00,
2013-11-18 20:08:00,17.8,14.3,30.58,NW,324,3.0,3.0,86,0.00,,---,0.01,VWS V14.01,2013-11-19 03:08:00,
2013-11-18 20:13:00,18.0,14.5,30.58,NW,324,3.0,3.0,86,0.00,,---,0.01,VWS V14.01,2013-11-19 03:13:00,
2013-11-18 20:18:00,17.3,12.8,30.58,NNW,332,7.0,10.0,82,0.00,,---,0.01,VWS V14.01,2013-11-19 03:18:00,
2013-11-18 20:23:00,16.6,12.4,30.59,NNW,332,1.0,2.0,83,0.00,,---,0.01,VWS V14.01,2013-11-19 03:23:00,
2013-11-18 20:28:00,16.2,12.2,30.59,NNW,332,0.0,0.0,84,0.00,,---,0.01,VWS V14.01,2013-11-19 03:28:00,
2013-11-18 20:33:00,15.9,11.9,30.59,NNW,332,0.0,0.0,84,0.00,,---,0.01,VWS V14.01,2013-11-19 03:33:00,
2013-11-18 20:38:00,15.9,12.5,30.59,NNW,332,0.0,0.0,86,0.00,,---,0.01,VWS V14.01,2013-11-19 03:38:00,
2013-11-18 20:43:00,15.8,12.4,30.58,NNW,332,0.0,0.0,86,0.00,,---,0.01,VWS V14.01,2013-11-19 03:43:00,
2013-11-18 20:48:00,15.7,12.3,30.59,NNW,332,4.0,5.0,86,0.00,,---,0.01,VWS V14.01,2013-11-19 03:48:00,
2013-11-18 20:53:00,15.6,11.9,30.59,NNW,332,4.0,6.0,85,0.00,,---,0.01,VWS V14.01,2013-11-19 03:53:00,
2013-11-18 20:58:00,15.7,12.3,30.59,NNW,332,5.0,5.0,86,0.00,,---,0.01,VWS V14.01,2013-11-19 03:58:00,
2013-11-18 21:03:00,15.3,11.3,30.59,NNW,332,6.0,6.0,84,0.00,,---,0.01,VWS V14.01,2013-11-19 04:03:00,
2013-11-18 21:07:00,15.0,11.1,30.59,NNW,332,3.0,5.0,84,0.00,,---,0.01,VWS V14.01,2013-11-19 04:07:00,
2013-11-18 21:12:00,15.2,11.8,30.59,NNW,332,0.0,0.0,86,0.00,,---,0.01,VWS V14.01,2013-11-19 04:12:00,
2013-11-18 21:17:00,15.5,12.3,30.59,NNW,332,3.0,3.0,87,0.00,,---,0.01,VWS V14.01,2013-11-19 04:17:00,
2013-11-18 21:22:00,15.8,12.4,30.59,NNW,332,4.0,6.0,86,0.00,,---,0.01,VWS V14.01,2013-11-19 04:22:00,
2013-11-18 21:27:00,16.0,12.6,30.59,NNW,333,6.0,6.0,86,0.00,,---,0.01,VWS V14.01,2013-11-19 04:27:00,
2013-11-18 21:32:00,15.9,11.9,30.58,NNW,332,0.0,3.0,84,0.00,,---,0.01,VWS V14.01,2013-11-19 04:32:00,
2013-11-18 21:37:00,15.5,11.5,30.59,NNW,332,0.0,0.0,84,0.00,,---,0.01,VWS V14.01,2013-11-19 04:37:00,
2013-11-18 21:42:00,15.1,10.9,30.59,NNW,332,2.0,3.0,83,0.00,,---,0.01,VWS V14.01,2013-11-19 04:42:00,
2013-11-18 21:47:00,14.2,10.0,30.59,NNW,332,1.0,1.0,83,0.00,,---,0.01,VWS V14.01,2013-11-19 04:47:00,
2013-11-18 21:52:00,13.8,10.1,30.59,NNW,333,5.0,7.0,85,0.00,,---,0.01,VWS V14.01,2013-11-19 04:52:00,
2013-11-18 21:57:00,14.5,11.3,30.59,NNW,333,4.0,5.0,87,0.00,,---,0.01,VWS V14.01,2013-11-19 04:57:00,
2013-11-18 22:01:00,14.9,11.7,30.59,NNW,333,4.0,4.0,87,0.00,,---,0.01,VWS V14.01,2013-11-19 05:01:00,
2013-11-18 22:02:00,15.0,11.8,30.59,NNW,333,1.0,4.0,87,0.00,,---,0.01,VWS V14.01,2013-11-19 05:02:00,
2013-11-18 22:07:00,14.8,11.4,30.59,NNW,333,0.0,0.0,86,0.00,,---,0.01,VWS V14.01,2013-11-19 05:07:00,
2013-11-18 22:12:00,14.4,10.5,30.59,NNW,333,0.0,0.0,84,0.00,,---,0.01,VWS V14.01,2013-11-19 05:12:00,
2013-11-18 22:17:00,13.9,10.0,30.59,NNW,333,3.0,4.0,84,0.00,,---,0.01,VWS V14.01,2013-11-19 05:17:00,
2013-11-18 22:22:00,14.2,11.1,30.59,NNW,333,6.0,6.0,87,0.00,,---,0.01,VWS V14.01,2013-11-19 05:22:00,
2013-11-18 22:27:00,14.2,10.8,30.59,NNW,333,0.0,0.0,86,0.00,,---,0.01,VWS V14.01,2013-11-19 05:27:00,
2013-11-18 22:32:00,13.6,9.9,30.59,NNW,333,0.0,0.0,85,0.00,,---,0.01,VWS V14.01,2013-11-19 05:32:00,
2013-11-18 22:37:00,13.2,9.6,30.59,NNW,333,0.0,0.0,85,0.00,,---,0.01,VWS V14.01,2013-11-19 05:37:00,
2013-11-18 22:42:00,13.0,9.6,30.59,NNW,333,0.0,0.0,86,0.00,,---,0.01,VWS V14.01,2013-11-19 05:42:00,
2013-11-18 22:47:00,13.1,10.0,30.59,NNW,333,0.0,0.0,87,0.00,,---,0.01,VWS V14.01,2013-11-19 05:47:00,
2013-11-18 22:52:00,13.2,10.3,30.59,NNW,333,0.0,0.0,88,0.00,,---,0.01,VWS V14.01,2013-11-19 05:52:00,
2013-11-18 22:57:00,13.3,10.4,30.59,NNW,333,0.0,0.0,88,0.00,,---,0.01,VWS V14.01,2013-11-19 05:57:00,
2013-11-18 23:02:00,13.4,10.5,30.59,NNW,333,0.0,0.0,88,0.00,,---,0.01,VWS V14.01,2013-11-19 06:02:00,
2013-11-18 23:07:00,13.2,10.1,30.59,NNW,333,4.0,4.0,87,0.00,,---,0.01,VWS V14.01,2013-11-19 06:07:00,
2013-11-18 23:12:00,13.7,10.8,30.58,NNW,334,6.0,6.0,88,0.00,,---,0.01,VWS V14.01,2013-11-19 06:12:00,
2013-11-18 23:17:00,14.1,10.9,30.58,NNW,334,0.0,4.0,87,0.00,,---,0.01,VWS V14.01,2013-11-19 06:17:00,
2013-11-18 23:22:00,14.3,11.1,30.58,NNW,334,0.0,0.0,87,0.00,,---,0.01,VWS V14.01,2013-11-19 06:22:00,
2013-11-18 23:27:00,14.2,11.1,30.58,NNW,334,0.0,0.0,87,0.00,,---,0.01,VWS V14.01,2013-11-19 06:27:00,
2013-11-18 23:32:00,14.1,10.7,30.58,NNW,334,0.0,0.0,86,0.00,,---,0.01,VWS V14.01,2013-11-19 06:32:00,
2013-11-18 23:37:00,13.8,10.1,30.58,NNW,334,0.0,0.0,85,0.00,,---,0.01,VWS V14.01,2013-11-19 06:37:00,
2013-11-18 23:42:00,13.4,9.7,30.58,NNW,334,0.0,0.0,85,0.00,,---,0.01,VWS V14.01,2013-11-19 06:42:00,
2013-11-18 23:47:00,13.1,9.4,30.58,NNW,334,0.0,0.0,85,0.00,,---,0.01,VWS V14.01,2013-11-19 06:47:00,
2013-11-18 23:52:00,12.9,9.5,30.57,NNW,334,0.0,0.0,86,0.00,,---,0.01,VWS V14.01,2013-11-19 06:52:00,
2013-11-18 23:57:00,12.8,9.4,30.57,NNW,334,0.0,0.0,86,0.00,,---,0.01,VWS V14.01,2013-11-19 06:57:00,